Annette Island, AK

8:17 PM AKDT on June 24, 2017 (GMT -0800)
Annette Island

Weather History for PANT - December, 2011

Change the Weather History Date:

Friday, December 9, 2011

  Actual Average Record
Temperature  
Mean Temperature 41 °F 37 °F  
Max Temperature 43 °F 42 °F 59 °F (1962)
Min Temperature 39 °F 33 °F 3 °F (1977)
Degree Days  
Heating Degree Days 24 28  
Month to date heating degree days 240 245  
Since 1 July heating degree days 2488 2295  
Cooling Degree Days 0    
Month to date cooling degree days 0  
Year to date cooling degree days 3  
Moisture  
Dew Point 39 °F    
Average Humidity 0    
Maximum Humidity 0    
Minimum Humidity 0    
Precipitation  
Precipitation 0.95 in 0.37 in 1.72 in (1973)
Month to date precipitation 2.62 3.28  
Year to date precipitation 106.11 94.19  
Snow  
Snow 0.00 in 0.30 in 2.70 in (1984)
Month to date snowfall 0.0 2.0  
Since 1 July snowfall 5.6  
Snow Depth 0.00 in    
Sea Level Pressure  
Sea Level Pressure 30.07 in    
Wind  
Wind Speed 10 mph (SSE)    
Max Wind Speed 17 mph    
Max Gust Speed 26 mph    
Visibility 6 miles    
Events Rain    
T = Trace of Precipitation, MM = Missing Value Source: NWS Daily Summary

Daily Weather History Graph

Daily Weather History Graph

Search for Another Location

Airport or City:

Trip Planner

Search our weather history database for the weather conditions in past years. The results will help you decide how hot, cold, wet, or windy it might be!

Date:

Astronomy

Dec. 09, 2011 Rise Set
Actual Time 7:58 AM AKST 3:18 PM AKST
Civil Twilight 7:13 AM AKST 4:03 PM AKST
Nautical Twilight 6:26 AM AKST 4:50 PM AKST
Astronomical Twilight 5:42 AM AKST 5:34 PM AKST
Moon 2:44 PM AKST (12/9) 7:14 AM AKST (12/9)
Length of Visible Light 8h 49m
Length of Day
7h 19m
Waxing Gibbous, 99% of the Moon is Illuminated
Dec 9
Waxing Gibbous
Dec 10
Full
Dec 17
Last Quarter
Dec 24
New
Dec 31
First Quarter

Hourly Weather History & Observations

Time (AKST) Temp. Windchill Dew Point Humidity Pressure Visibility Wind Dir Wind Speed Gust Speed Precip Events Conditions
12:53 AM 42.1 °F 38.4 °F 39.9 °F 92% 30.33 in 4.0 mi SSE 5.8 mph 19.6 mph 0.04 in Rain Light Rain
1:31 AM 42.8 °F 38.0 °F 41.0 °F 93% 30.31 in 4.0 mi SSE 8.1 mph 17.3 mph 0.02 in Rain Light Rain
1:53 AM 41.0 °F 35.8 °F 39.9 °F 96% 30.32 in 3.0 mi SSE 8.1 mph - 0.04 in Rain Light Rain
3:53 AM 41.0 °F 35.2 °F 39.9 °F 96% 30.27 in 9.0 mi SSE 9.2 mph - 0.00 in   Overcast
4:48 AM 42.8 °F 37.0 °F 41.0 °F 93% 30.25 in 10.0 mi SSE 10.4 mph - N/A   Overcast
4:53 AM 42.1 °F 36.1 °F 39.9 °F 92% 30.26 in 10.0 mi SSE 10.4 mph 20.7 mph N/A   Overcast
5:53 AM 42.1 °F 36.6 °F 39.9 °F 92% 30.24 in 10.0 mi SSE 9.2 mph 21.9 mph N/A   Overcast
6:53 AM 42.1 °F 37.1 °F 39.9 °F 92% 30.22 in 10.0 mi SSE 8.1 mph 17.3 mph N/A   Overcast
7:53 AM 42.1 °F 34.9 °F 39.9 °F 92% 30.19 in 10.0 mi SSE 13.8 mph 20.7 mph N/A   Overcast
8:21 AM 42.8 °F 36.2 °F 39.2 °F 87% 30.18 in 10.0 mi SSE 12.7 mph 19.6 mph 0.00 in   Overcast
8:44 AM 42.8 °F 37.5 °F 39.2 °F 87% 30.17 in 10.0 mi SSE 9.2 mph 18.4 mph 0.00 in   Overcast
8:51 AM 42.8 °F 37.5 °F 39.2 °F 87% 30.17 in 10.0 mi SSE 9.2 mph 18.4 mph 0.00 in   Overcast
8:53 AM 42.1 °F 36.1 °F 39.9 °F 92% 30.17 in 10.0 mi SSE 10.4 mph - 0.00 in   Overcast
9:53 AM 42.1 °F 35.7 °F 39.9 °F 92% 30.16 in 9.0 mi SSE 11.5 mph 20.7 mph 0.01 in   Overcast
10:01 AM 42.8 °F 37.0 °F 39.2 °F 87% 30.15 in 5.0 mi SSE 10.4 mph 19.6 mph 0.00 in Rain Light Rain
10:14 AM 42.8 °F 36.6 °F 39.2 °F 87% 30.14 in 3.0 mi SSE 11.5 mph 20.7 mph 0.01 in Rain Light Rain
10:21 AM 42.8 °F 38.0 °F 39.2 °F 87% 30.14 in 3.0 mi South 8.1 mph 17.3 mph 0.01 in Rain Light Rain
10:28 AM 42.8 °F 36.6 °F 39.2 °F 87% 30.14 in 2.5 mi SSE 11.5 mph 18.4 mph 0.01 in Rain Light Rain
10:35 AM 42.8 °F 37.0 °F 39.2 °F 87% 30.14 in 3.0 mi SSE 10.4 mph 20.7 mph 0.02 in Rain Light Rain
10:53 AM 41.0 °F 34.3 °F 39.9 °F 96% 30.13 in 10.0 mi SSE 11.5 mph - 0.02 in   Overcast
11:04 AM 41.0 °F 33.5 °F 39.2 °F 93% 30.12 in 1.8 mi SSE 13.8 mph 21.9 mph 0.01 in Rain Light Rain
11:22 AM 41.0 °F 35.2 °F 39.2 °F 93% 30.11 in 3.0 mi SSE 9.2 mph 24.2 mph 0.04 in Rain Light Rain
11:31 AM 41.0 °F 33.9 °F 39.2 °F 93% 30.11 in 2.0 mi SSE 12.7 mph 21.9 mph 0.04 in Rain Light Rain
11:53 AM 41.0 °F 33.9 °F 39.9 °F 96% 30.10 in 2.0 mi SSE 12.7 mph 20.7 mph 0.06 in Rain Light Rain
12:02 PM 41.0 °F 34.7 °F 39.2 °F 93% 30.09 in 1.8 mi SSE 10.4 mph 25.3 mph 0.00 in Rain Light Rain
12:13 PM 41.0 °F 35.2 °F 39.2 °F 93% 30.08 in 2.0 mi SSE 9.2 mph 18.4 mph 0.02 in Rain Light Rain
12:22 PM 41.0 °F 35.2 °F 39.2 °F 93% 30.08 in 1.8 mi SSE 9.2 mph 21.9 mph 0.03 in Rain Light Rain
12:29 PM 41.0 °F 34.7 °F 39.2 °F 93% 30.08 in 2.0 mi SSE 10.4 mph 18.4 mph 0.03 in Rain Light Rain
12:51 PM 41.0 °F 34.7 °F 39.2 °F 93% 30.06 in 2.0 mi SSE 10.4 mph 21.9 mph 0.05 in Rain Light Rain
12:53 PM 41.0 °F 34.7 °F 39.9 °F 96% 30.07 in 2.0 mi SSE 10.4 mph 21.9 mph 0.06 in Rain Light Rain
1:02 PM 41.0 °F 32.5 °F 39.2 °F 93% 30.06 in 3.0 mi SSE 17.3 mph 23.0 mph 0.01 in Rain Light Rain
1:12 PM 41.0 °F 33.9 °F 39.2 °F 93% 30.05 in 3.0 mi SE 12.7 mph 23.0 mph 0.01 in Rain Light Rain
1:53 PM 41.0 °F 33.9 °F 39.9 °F 96% 30.04 in 6.0 mi SE 12.7 mph - 0.05 in Rain Rain
2:02 PM 41.0 °F 34.7 °F 39.2 °F 93% 30.03 in 6.0 mi South 10.4 mph 21.9 mph 0.02 in Rain Rain
2:14 PM 41.0 °F 34.3 °F 39.2 °F 93% 30.02 in 7.0 mi SE 11.5 mph 18.4 mph 0.04 in Rain Light Rain
2:44 PM 41.0 °F 34.3 °F 39.2 °F 93% 30.00 in 5.0 mi SSE 11.5 mph 21.9 mph 0.08 in Rain Rain
2:53 PM 41.0 °F 33.5 °F 39.0 °F 93% 30.01 in 8.0 mi SSE 13.8 mph 20.7 mph 0.09 in Rain Light Rain
3:53 PM 41.0 °F 34.7 °F 39.0 °F 93% 29.98 in 10.0 mi SE 10.4 mph 20.7 mph 0.03 in   Overcast
4:05 PM 41.0 °F 33.5 °F 39.2 °F 93% 29.96 in 10.0 mi SE 13.8 mph 19.6 mph 0.00 in Rain Light Rain
4:14 PM 41.0 °F 33.1 °F 39.2 °F 93% 29.96 in 7.0 mi SE 15.0 mph - 0.00 in Rain Light Rain
4:53 PM 41.0 °F 35.8 °F 39.9 °F 96% 29.94 in 6.0 mi SSE 8.1 mph 18.4 mph 0.06 in Rain Rain
5:42 PM 42.8 °F 37.0 °F 39.2 °F 87% 29.91 in 8.0 mi South 10.4 mph 21.9 mph 0.09 in Rain Light Rain
5:53 PM 42.1 °F 37.1 °F 39.9 °F 92% 29.91 in 9.0 mi South 8.1 mph 16.1 mph 0.10 in Rain Light Rain
6:53 PM 42.1 °F 36.1 °F 39.9 °F 92% 29.89 in 10.0 mi South 10.4 mph 20.7 mph 0.08 in Rain Light Rain
7:50 PM 42.8 °F 37.0 °F 39.2 °F 87% 29.86 in 10.0 mi South 10.4 mph 19.6 mph 0.04 in Rain Light Rain
7:53 PM 42.1 °F 36.6 °F 39.9 °F 92% 29.86 in 10.0 mi South 9.2 mph 19.6 mph 0.04 in Rain Light Rain
8:53 PM 42.1 °F 36.6 °F 39.9 °F 92% 29.85 in 7.0 mi South 9.2 mph - 0.08 in Rain Light Rain
9:53 PM 41.0 °F 38.0 °F 39.0 °F 93% 29.84 in 5.0 mi WNW 4.6 mph - 0.12 in Rain Rain
10:53 PM 39.0 °F 31.4 °F 36.0 °F 89% 29.86 in 10.0 mi NW 12.7 mph 19.6 mph 0.07 in   Overcast
11:51 PM 39.2 °F 33.0 °F 35.6 °F 87% 29.88 in 10.0 mi NW 9.2 mph - N/A   Overcast
11:53 PM 39.0 °F 32.8 °F 36.0 °F 89% 29.89 in 10.0 mi NW 9.2 mph - N/A   Overcast